Location: ??????????
(42.1626°N, 44.1160°E)
Time: 13:06:03
(UTC+00:00)

Cosmos 2219 Rocket - Pass Details

Date: 03 March 2021
Orbit: 826 x 848 km, 71.0° (Epoch: 13 April)

Event Time Altitude Azimuth Distance (km) Brightness Sun altitude
Rises 17:41:54 0° 221° (SW) 3,353 5.5 -31.0°
Reaches altitude 10° 17:44:25 10° 227° (SW) 2,425 4.8 -31.5°
Maximum altitude 17:49:44 46° 300° (WNW) 1,109 3.1 -32.4°
Enters shadow 17:53:48 17° 7° (N) 1,992 4.2 -33.1°
Exits shadow 17:55:33 - 15° (NNE) 2,605 4.8 -33.4°
Sets 17:57:41 0° 20° (NNE) 3,391 5.4 -33.7°
